RH
6 6 6 6 6 6 6 6 6 6 6 6 6 6 6 6 6 5 5 5 5 5 5 5 5 5 5 5 5 5 5 5 5 5 6 6 6 6 6 6 7 7 7 7 7 7 7 7 7 7 7 6 6 6 5 5 4 4 4 4 4 4 4 4 4 4 4 3 3 3 3 3 3 4 5 7 11 16 21 28 34 39 42 45 49 53 58 61 62 61 59 57 55 55 54 53 51 46 40 33 27 24 25
6 6 6 6 6 6 6 6 6 6 6 6 6 6 6 5 5 5 5 5 5 5 5 5 5 5 5 5 5 5 5 5 5 5 5 5 5 5 5 6 6 6 6 6 7 7 7 7 7 7 7 7 7 6 6 5 5 4 4 4 4 4 4 4 5 5 4 4 3 3 3 3 3 3 4 5 7 10 14 20 27 34 39 42 45 48 53 58 62 64 63 60 57 55 54 55 54 52 48 41 34 27 25
6 6 6 6 6 6 6 6 6 6 6 6 6 6 5 5 5 5 5 5 5 5 5 5 5 4 4 4 4 4 4 4 4 4 4 5 5 5 5 5 5 5 5 6 6 6 6 7 7 7 7 7 7 7 7 6 6 5 5 4 4 4 4 4 4 5 5 4 4 4 3 3 3 3 3 3 4 6 9 13 19 26 34 39 42 45 48 53 59 63 65 63 60 57 55 55 56 57 56 49 41 34 28
7 7 6 6 6 6 6 6 6 6 6 6 6 5 5 5 5 5 5 5 5 5 5 5 4 4 4 4 4 4 4 4 4 4 4 4 4 4 4 4 4 5 5 5 5 5 5 6 6 6 6 7 7 7 7 7 7 6 6 5 5 5 4 4 4 4 5 5 5 4 4 3 3 3 3 3 3 4 5 8 12 18 26 33 38 42 44 48 54 60 65 66 64 60 57 55 56 58 60 57 50 42 35
7 7 7 6 6 6 6 6 6 6 6 6 5 5 5 5 5 5 5 5 5 5 4 4 4 4 4 4 4 4 4 4 3 3 3 3 3 3 4 4 4 4 4 4 4 5 5 5 5 5 6 6 6 6 7 7 7 7 6 6 6 5 5 5 5 4 4 5 5 5 4 4 3 3 3 3 3 3 4 5 7 11 17 25 32 38 42 44 48 54 61 65 66 64 60 57 56 57 60 60 57 50 43
7 7 6 6 6 6 6 6 6 6 5 5 5 5 5 5 5 5 4 4 4 4 4 4 4 4 4 4 4 3 3 3 3 3 3 3 3 3 3 3 3 3 3 4 4 4 4 4 4 5 5 5 5 6 6 6 6 7 7 6 6 6 6 5 5 5 4 5 5 5 5 4 4 4 3 3 3 3 3 3 5 7 10 17 25 32 38 41 44 49 55 62 66 67 64 60 57 56 58 60 60 56 50
6 6 6 6 6 6 6 6 5 5 5 5 5 5 5 4 4 4 4 4 4 4 4 3 3 3 3 3 3 3 3 3 3 3 3 3 3 3 3 3 3 3 3 3 3 3 3 4 4 4 4 4 4 5 5 5 6 6 6 6 6 6 6 6 6 5 5 5 5 5 5 5 5 4 4 3 3 3 3 3 3 4 6 10 16 24 32 37 41 45 49 57 63 67 67 64 60 57 56 59 60 60 56
6 6 6 6 5 5 5 5 5 5 5 5 4 4 4 4 4 4 4 3 3 3 3 3 3 3 3 3 3 3 3 3 3 3 3 3 3 3 3 3 3 3 3 3 3 3 3 3 3 3 4 4 4 4 4 5 5 5 6 6 6 6 6 6 6 6 5 5 5 5 5 5 5 5 4 4 3 3 3 3 3 3 4 6 10 16 23 31 37 41 45 51 58 64 68 67 64 60 56 57 59 60 60
5 5 5 5 5 5 5 5 4 4 4 4 4 4 4 4 4 4 3 3 3 3 3 3 3 3 3 3 3 3 3 3 3 3 3 3 3 3 3 3 3 3 3 3 3 3 3 3 3 3 3 3 3 3 4 4 4 4 5 5 6 6 6 6 6 6 6 6 5 5 5 5 5 5 5 4 4 3 3 3 3 3 3 4 6 9 15 23 31 37 42 46 52 60 66 69 68 64 59 57 57 59 62
5 5 5 5 5 4 4 4 4 4 4 4 4 4 4 4 4 4 3 3 3 3 3 3 3 3 3 3 3 3 3 3 3 3 3 3 3 3 3 3 3 3 3 3 3 3 3 3 3 3 3 3 3 3 3 3 4 4 4 4 5 5 6 6 6 6 6 6 6 5 5 5 5 5 5 5 4 4 3 3 3 3 3 3 4 5 9 15 23 31 37 42 48 54 62 67 69 68 63 59 57 58 61
5 5 5 5 4 4 4 4 4 4 4 4 4 4 4 4 4 4 4 3 3 3 3 3 3 3 3 3 3 3 3 3 3 3 3 3 3 3 3 2 2 2 2 2 2 3 3 3 3 3 3 3 3 3 3 3 3 3 4 4 4 4 5 5 6 6 6 6 6 6 5 5 5 5 5 5 5 5 4 4 3 3 3 3 3 4 5 9 15 23 31 38 43 49 56 63 68 69 67 62 59 57 58
5 5 5 5 5 5 4 4 4 4 4 4 4 4 4 4 4 4 4 4 3 3 3 3 3 3 3 3 3 3 3 3 3 3 3 3 3 3 3 3 3 3 2 2 2 2 3 3 3 3 3 3 3 3 3 3 3 3 3 3 4 4 4 5 5 5 6 6 6 6 6 5 5 5 5 5 5 5 5 4 4 3 3 3 3 3 3 5 9 15 23 31 38 44 50 57 63 68 69 66 62 59 57
5 5 5 5 5 5 5 5 5 5 4 4 4 4 4 4 4 4 4 4 4 4 4 4 3 3 3 3 3 3 3 3 3 3 3 3 3 3 3 3 3 3 3 3 3 3 3 3 3 3 3 3 3 3 2 3 3 3 3 3 3 3 4 4 4 5 5 5 6 6 6 6 5 5 5 5 5 5 5 5 4 4 3 3 3 3 3 4 5 9 14 23 32 39 45 51 58 64 68 68 66 62 59
6 5 5 5 5 5 5 5 5 5 5 5 4 4 4 4 4 4 4 4 4 4 4 4 4 4 4 3 3 3 3 3 3 3 3 3 3 3 3 3 3 3 3 3 3 3 3 3 3 3 3 3 3 3 3 2 2 2 3 3 3 3 3 3 4 4 4 5 5 6 6 6 6 5 5 5 5 5 5 5 5 4 4 4 3 3 3 3 4 5 8 15 23 32 40 46 52 58 64 67 68 66 62
6 6 6 6 6 6 6 5 5 5 5 5 5 4 4 4 4 4 4 4 4 4 4 4 4 4 4 4 4 3 3 4 4 4 4 4 4 4 3 3 3 3 3 3 3 3 3 3 3 3 3 3 3 3 3 3 2 2 2 3 3 3 3 3 3 3 4 4 5 5 5 6 6 5 5 5 5 5 5 5 5 5 4 4 4 3 3 3 3 4 5 9 16 24 33 40 47 53 59 64 67 68 67
7 6 6 6 6 6 6 6 5 5 5 5 5 5 5 4 4 4 4 4 4 4 4 4 4 4 4 4 4 4 4 4 4 4 4 4 4 4 4 4 4 4 3 3 3 3 3 3 3 3 3 3 3 3 3 3 3 3 3 3 3 3 3 3 3 3 3 4 4 4 5 5 5 6 5 5 5 5 5 5 5 5 5 4 4 4 4 4 3 3 3 5 9 16 25 34 41 48 53 59 64 67 69
7 7 7 7 7 6 6 6 6 5 5 5 5 5 5 5 5 5 5 4 4 4 4 4 4 4 4 4 4 4 4 4 4 4 4 4 4 4 4 4 4 4 4 4 3 3 3 3 3 3 3 3 3 3 3 3 3 3 3 3 3 3 3 3 3 3 3 3 3 4 4 5 5 5 6 5 5 5 5 5 5 5 5 5 4 4 4 4 4 4 3 4 6 10 16 25 34 42 48 53 59 64 68
7 7 7 7 7 6 6 6 6 5 5 5 5 5 5 5 5 5 5 4 4 4 4 4 4 4 4 4 4 4 4 4 4 4 4 4 4 4 4 4 4 4 4 4 4 4 3 3 3 3 3 3 3 3 3 3 3 3 3 3 3 3 3 3 3 3 3 3 3 3 4 4 5 5 5 5 5 5 5 5 5 5 5 5 5 4 4 4 4 4 4 3 4 6 9 17 26 35 42 48 54 59 65
8 8 7 7 7 7 6 6 6 6 5 5 5 5 5 5 5 5 4 4 4 4 4 4 4 4 4 4 4 4 4 4 4 4 4 4 4 4 4 4 4 4 4 4 4 4 3 3 3 3 3 3 3 3 3 3 3 3 3 3 3 3 3 3 3 3 3 3 3 3 3 4 4 4 5 5 5 5 5 5 5 5 5 5 5 5 4 4 4 4 4 4 4 4 5 10 18 26 35 43 49 54 60
8 8 8 7 7 7 6 6 6 6 6 6 5 5 5 5 5 5 4 4 4 4 4 4 4 4 4 4 5 5 5 4 4 4 4 4 4 4 4 4 4 4 4 4 4 3 3 3 3 3 3 3 3 3 3 3 3 3 3 3 3 3 3 3 3 3 3 3 3 3 3 3 4 4 4 5 5 5 5 5 5 5 5 5 5 5 5 4 4 4 4 4 4 4 4 6 11 18 27 36 43 50 55
9 8 8 8 7 7 6 6 6 6 6 6 5 5 5 5 5 4 4 4 4 4 4 4 4 4 4 4 4 4 4 4 4 4 4 4 4 4 4 4 4 3 3 3 3 3 3 3 3 3 3 3 3 3 3 3 3 3 3 3 3 3 3 3 3 3 3 3 3 3 3 3 3 4 4 4 5 5 5 5 5 5 5 5 5 5 5 5 5 4 4 4 4 4 3 4 6 11 19 28 37 44 51
9 8 8 8 7 7 7 6 6 6 6 5 5 5 5 5 4 4 4 4 4 4 4 4 4 4 4 4 4 4 4 4 4 4 4 3 3 3 3 3 3 3 3 3 3 3 3 3 3 3 3 3 3 3 3 3 3 3 3 3 3 3 3 3 3 3 3 3 3 3 3 3 3 3 4 4 4 5 5 5 5 5 5 5 5 5 5 5 5 5 4 4 4 4 4 4 4 7 11 20 29 38 46
9 9 8 8 7 7 7 6 6 6 6 5 5 5 5 4 4 4 4 4 4 4 4 4 4 4 4 4 4 4 4 3 3 3 3 3 3 3 3 3 3 3 3 3 3 3 3 3 3 3 3 3 3 3 2 2 2 2 2 3 3 3 3 3 3 3 3 3 3 3 3 3 3 3 3 4 4 4 5 5 5 5 5 5 4 5 5 5 5 5 5 4 4 4 4 4 4 4 7 13 21 31 40
9 9 8 8 7 7 7 6 6 6 5 5 5 5 5 4 4 4 4 4 4 4 4 4 4 4 4 4 3 3 3 3 3 3 3 3 3 3 4 4 4 4 4 3 3 3 3 3 3 3 3 3 3 3 2 2 2 2 2 2 2 3 3 3 3 3 3 3 3 3 3 3 3 3 3 3 4 4 4 5 5 5 5 5 5 4 4 5 5 5 5 5 5 4 4 4 4 4 4 8 14 22 32
9 9 8 8 7 7 7 6 6 6 5 5 5 5 4 4 4 4 4 4 4 4 4 4 4 3 3 3 3 3 3 4 4 4 4 4 4 4 4 4 4 4 4 4 4 4 4 4 4 3 3 3 3 3 3 2 2 2 2 2 2 2 2 3 3 3 3 3 3 3 3 3 3 3 3 3 3 4 4 4 5 5 5 5 5 5 4 5 5 5 5 5 5 5 5 4 4 4 4 5 9 15 23
9 8 8 8 7 7 7 6 6 6 5 5 5 5 4 4 4 4 4 4 4 4 3 3 3 3 3 3 4 4 4 4 4 4 4 4 4 4 4 4 4 4 4 4 4 4 4 4 4 4 4 4 3 3 3 3 3 2 2 2 2 2 2 2 2 2 3 3 3 3 3 3 3 3 3 3 3 4 4 4 5 5 5 5 5 5 5 4 5 5 6 5 5 5 5 5 4 4 4 4 5 9 15
9 8 8 7 7 7 6 6 6 5 5 5 5 4 4 4 4 4 4 4 3 3 3 3 3 3 4 4 4 4 4 4 4 4 4 4 4 4 4 4 4 4 4 4 4 4 4 4 4 4 4 4 4 4 3 3 3 3 3 2 2 2 2 2 2 2 2 2 3 3 3 3 3 3 3 3 3 3 4 4 4 5 5 5 5 5 5 5 4 5 5 6 6 5 5 5 5 5 4 4 4 6 9
9 8 8 7 7 7 6 6 6 5 5 5 5 4 4 4 4 4 3 3 3 3 3 3 4 4 4 4 4 4 4 4 4 4 4 4 4 4 4 4 4 4 4 4 4 4 4 4 4 4 4 4 4 4 4 4 3 3 3 3 3 2 2 2 2 2 2 2 2 3 3 3 3 3 3 3 3 3 4 4 4 4 5 5 5 5 5 5 4 4 5 5 6 6 5 5 5 5 5 4 4 4 6
9 8 8 7 7 7 6 6 6 5 5 5 4 4 4 4 4 3 3 3 3 4 4 4 4 4 4 4 4 4 4 4 4 4 4 4 4 4 4 4 4 4 4 4 4 4 4 4 4 4 4 4 4 4 4 4 4 4 3 3 3 3 3 2 2 2 2 2 2 3 3 3 3 3 3 3 3 3 3 4 4 4 5 5 5 5 5 5 5 4 4 5 5 6 6 5 5 5 5 5 4 4 4
8 8 8 7 7 6 6 6 5 5 5 4 4 4 4 4 3 3 3 4 4 4 4 4 4 4 4 4 4 4 4 4 4 4 4 4 4 4 4 4 4 4 4 4 4 4 4 4 4 4 4 4 4 4 4 4 4 4 4 4 3 3 3 3 3 3 2 2 2 2 3 3 3 3 3 3 3 3 3 4 4 4 4 5 5 5 5 5 5 5 4 4 5 6 6 6 5 5 5 5 5 4 4
8 8 7 7 7 6 6 6 5 5 5 4 4 4 4 3 3 4 4 4 4 4 4 4 4 4 4 4 4 4 4 4 4 4 4 4 4 4 4 4 4 4 4 4 4 4 4 4 4 4 4 4 4 3 3 3 3 4 4 4 4 4 3 3 3 3 3 2 2 2 2 3 3 3 3 3 3 3 3 4 4 4 4 5 5 5 5 5 5 5 5 4 4 5 6 6 6 5 5 5 5 5 4
8 8 7 7 7 6 6 5 5 5 4 4 4 4 3 3 4 4 4 4 4 4 4 4 4 4 4 4 4 4 4 4 4 4 4 4 4 5 5 5 5 5 5 5 5 5 5 5 5 5 4 4 4 4 4 3 3 3 3 4 4 4 4 3 3 3 3 3 3 3 3 3 3 3 3 3 3 3 3 4 4 4 4 5 5 5 5 5 5 5 5 4 4 5 5 6 6 6 6 5 5 5 5
8 8 7 7 6 6 6 5 5 5 4 4 4 4 4 4 4 4 4 5 5 5 5 5 4 4 4 4 4 4 4 4 4 5 5 5 5 5 6 6 6 6 6 5 5 5 5 5 5 5 5 5 5 4 4 4 3 3 3 3 3 4 4 4 4 3 3 3 3 3 3 3 3 3 3 3 3 3 3 3 4 4 4 5 5 5 5 5 5 5 5 5 4 4 5 6 6 6 6 6 6 5 5
8 8 7 7 6 6 5 5 5 4 4 4 4 4 4 4 4 4 5 5 5 5 5 5 5 4 4 4 4 5 5 5 5 6 6 6 6 6 6 6 6 6 6 6 5 5 5 5 5 5 5 5 5 5 4 4 4 4 3 3 3 3 4 4 4 4 3 3 3 3 3 3 3 3 3 3 3 3 3 3 4 4 4 5 5 5 5 5 5 5 5 5 5 4 4 5 6 7 7 6 6 6 5
8 7 7 7 6 6 5 5 4 4 4 4 4 4 4 4 5 5 5 5 5 5 5 5 5 5 5 5 5 5 6 6 7 7 7 7 7 7 7 6 6 6 6 5 5 5 5 5 5 5 5 5 5 5 5 4 4 4 4 3 3 3 3 3 4 4 4 4 3 3 3 3 3 3 3 3 3 3 3 3 4 4 4 5 5 5 5 5 5 5 5 5 5 5 4 5 6 7 7 7 6 6 6
8 7 7 6 6 5 5 5 4 4 4 4 4 4 5 5 5 5 5 5 5 5 5 5 5 5 5 6 6 6 7 7 7 8 8 7 7 7 7 6 6 6 5 5 5 5 5 4 4 4 4 4 4 4 5 5 4 4 4 4 3 3 3 3 3 4 4 4 4 3 3 3 3 3 3 3 3 3 3 3 3 4 4 5 5 5 5 5 5 5 5 5 5 5 4 5 5 6 7 7 7 6 6
8 7 7 6 6 5 5 4 4 4 4 4 4 5 5 5 5 5 5 5 5 5 5 5 5 6 6 7 7 8 8 8 8 8 8 7 7 7 6 6 5 5 5 5 4 4 4 4 4 4 4 4 4 4 4 4 4 4 4 4 4 3 3 3 3 3 4 4 4 4 4 3 3 3 3 3 3 3 3 3 3 4 4 5 5 5 5 5 5 5 5 5 5 5 5 5 5 6 7 7 7 7 6
7 7 6 6 5 5 5 4 4 4 4 4 5 5 5 5 5 5 5 5 5 5 5 6 6 6 7 8 8 8 9 9 8 8 7 7 6 6 6 5 5 5 4 4 4 4 4 4 4 4 4 4 4 4 4 4 4 4 4 4 4 4 4 3 3 3 3 3 4 4 4 4 4 3 3 3 3 3 3 3 3 4 4 5 5 5 5 5 6 6 6 6 5 5 5 5 5 5 6 7 7 7 7
7 7 6 6 5 5 4 4 4 4 4 5 5 5 5 5 5 5 6 6 6 6 6 6 7 7 8 9 9 9 9 9 8 8 7 6 6 5 5 5 5 5 4 4 4 4 4 4 4 4 4 3 3 3 4 4 4 4 4 4 4 4 4 4 3 3 3 3 3 4 4 4 4 4 4 3 3 3 3 3 4 4 4 4 5 5 5 5 6 6 6 6 6 6 5 5 5 5 5 7 7 8 7
7 7 6 6 5 5 4 4 4 5 5 5 5 5 5 5 6 6 6 6 6 6 7 7 8 9 9 9 10 9 9 8 8 7 6 6 5 5 5 5 5 5 5 5 5 5 5 5 4 4 4 4 4 3 3 3 3 4 4 4 4 4 4 4 4 4 3 3 3 3 4 4 4 4 4 4 4 3 3 3 4 4 4 4 5 5 5 6 6 6 6 6 6 6 6 6 5 5 5 6 7 8 8
7 6 6 5 5 5 4 4 5 5 5 5 6 6 6 6 6 6 6 6 7 7 8 8 9 10 10 10 10 9 9 8 7 6 6 6 5 5 5 5 5 6 6 6 5 5 5 5 5 5 5 4 4 4 3 3 3 3 4 4 4 4 4 4 4 4 4 3 3 3 3 4 4 4 4 4 4 4 4 4 4 4 4 4 5 5 5 6 6 6 6 6 6 6 6 6 6 5 5 6 7 8 8
7 6 6 5 5 5 4 5 5 5 6 6 6 6 6 6 6 6 7 7 7 8 9 9 10 10 10 10 9 9 8 7 7 6 6 5 6 6 6 6 6 6 6 6 6 6 5 5 5 5 5 5 4 4 4 4 3 3 3 3 4 4 4 4 4 4 4 4 4 3 3 3 4 4 4 4 4 4 4 4 4 4 4 4 4 5 5 6 6 6 6 7 7 7 6 6 6 5 5 5 6 7 8
7 6 6 5 5 5 5 5 5 5 6 6 6 6 6 6 7 7 7 7 8 9 10 10 11 11 10 10 9 8 8 7 6 6 6 6 6 6 7 7 6 6 6 6 6 5 5 5 5 5 5 5 5 5 4 4 4 3 3 3 3 4 4 4 4 4 4 4 4 4 3 3 3 4 4 4 4 4 4 4 4 4 4 4 4 5 5 6 6 7 7 7 7 7 7 6 6 6 5 5 6 7 8
7 6 5 5 5 5 5 5 5 6 6 6 6 6 7 7 7 7 8 8 9 10 10 11 11 11 10 10 9 8 7 6 6 6 6 6 7 7 7 7 7 6 6 6 6 5 5 5 5 5 4 4 4 4 4 4 4 4 3 3 3 4 4 4 4 4 4 4 4 4 4 3 3 3 4 4 4 4 4 4 4 4 4 4 4 5 5 6 6 7 7 7 7 7 7 7 6 6 6 5 5 6 7
6 6 5 5 5 5 5 5 6 6 6 6 6 7 7 7 8 8 8 9 10 10 11 11 11 11 10 9 8 8 7 6 6 6 7 7 7 7 7 7 7 6 6 6 5 5 5 5 4 4 4 4 4 4 4 4 4 4 4 4 3 3 4 4 4 4 4 4 4 4 4 3 3 3 3 4 4 4 4 4 4 4 4 4 4 5 5 6 6 7 7 7 7 7 7 7 7 6 6 6 5 6 7
6 6 5 5 5 5 5 6 6 6 6 6 7 7 8 8 8 8 9 10 10 11 12 12 11 10 10 9 8 7 6 6 7 7 7 8 8 8 8 7 7 7 6 6 5 5 5 4 4 4 4 4 4 4 4 4 4 4 4 4 4 3 4 4 4 4 4 4 4 4 4 4 3 3 3 3 4 4 4 4 4 4 4 4 4 5 5 6 6 7 7 7 7 7 7 7 7 7 6 6 6 6 6
6 6 5 5 5 5 6 6 6 6 6 7 7 8 8 8 8 9 10 10 11 12 12 12 11 10 9 9 8 7 7 7 7 8 8 8 8 8 8 8 7 7 6 6 5 5 4 4 4 3 3 3 3 3 3 4 4 4 4 4 4 4 4 4 4 4 4 4 4 4 4 4 4 3 3 3 3 4 4 4 4 4 4 4 4 5 5 5 6 6 7 7 7 7 7 7 7 7 7 7 6 6 6
6 5 5 5 5 6 6 6 6 6 6 7 8 8 9 9 9 10 11 11 12 12 12 12 11 10 9 8 7 7 7 8 8 9 9 9 9 8 8 7 7 6 6 6 5 5 5 4 3 3 3 2 3 3 3 3 4 4 4 5 4 4 4 4 4 4 4 4 4 4 4 4 4 3 3 3 3 3 4 4 4 4 4 4 4 4 5 5 6 6 7 7 7 8 8 8 8 7 7 7 7 6 6
6 5 5 5 6 6 6 6 6 6 7 7 8 9 9 9 10 10 12 12 13 13 13 12 11 10 9 8 7 7 7 8 9 9 9 9 9 8 8 7 7 6 6 6 6 5 5 4 3 3 2 2 2 2 2 3 3 4 4 5 5 5 4 4 4 4 4 4 4 4 4 4 4 4 3 3 3 3 3 4 4 4 4 4 4 4 5 5 5 6 7 7 7 8 8 8 8 8 8 8 7 7 7
6 5 5 6 6 6 7 7 6 7 7 8 9 9 10 10 10 11 13 13 14 13 13 12 11 10 9 8 7 7 8 9 10 10 10 10 9 9 8 7 7 6 6 6 6 5 5 4 3 2 2 2 2 2 2 2 3 3 4 5 5 5 5 4 4 4 4 4 4 4 4 4 4 4 3 3 3 3 3 3 4 4 4 4 4 4 5 5 5 6 6 7 7 8 8 8 8 8 8 8 8 8 7
6 5 5 6 6 7 7 7 7 7 8 9 9 10 10 10 11 12 13 14 14 14 13 12 10 10 9 7 7 7 9 10 10 10 10 10 10 10 10 9 8 7 6 5 5 5 4 3 3 2 2 2 1 1 1 2 2 3 3 4 5 5 5 5 4 4 4 4 4 4 4 4 4 4 4 3 3 3 3 3 4 4 4 4 4 4 5 5 5 5 6 7 7 8 8 8 8 8 8 8 8 8 8
6 6 6 6 7 7 7 7 7 7 8 9 10 10 10 11 12 13 14 15 14 14 13 12 10 10 8 7 7 8 9 10 11 11 12 12 11 11 11 10 9 8 7 5 5 4 4 3 2 2 2 2 1 1 1 1 2 2 3 4 5 5 5 5 5 4 4 4 4 4 4 4 5 4 4 4 3 3 3 3 3 4 4 4 4 4 4 5 5 5 6 6 7 7 8 8 8 8 8 8 8 8 8
6 6 6 6 7 7 7 7 7 8 9 10 10 11 11 12 13 14 15 15 15 14 13 12 11 10 8 7 7 8 10 11 12 13 13 13 13 13 12 12 13 12 11 9 6 4 3 2 2 2 2 2 2 1 1 1 1 2 2 3 4 5 5 5 5 4 4 4 4 4 4 4 5 5 5 4 4 4 3 3 3 4 4 4 4 4 4 5 5 5 5 6 6 7 7 8 8 8 8 9 9 9 9
6 6 6 7 7 7 7 7 7 8 10 10 11 11 11 12 13 15 15 16 15 14 13 12 11 10 8 7 7 8 10 12 13 14 14 15 16 17 16 16 16 16 15 13 10 7 4 3 2 2 2 2 2 2 1 1 1 2 2 3 4 5 5 5 5 5 4 4 4 4 4 5 5 5 5 5 4 4 4 4 3 4 4 4 4 4 4 4 5 5 5 6 6 7 7 7 8 8 8 9 9 9 9
6 6 7 7 7 8 7 7 8 9 10 11 11 12 12 13 14 15 16 16 15 15 14 13 12 10 9 7 7 8 10 12 14 15 16 17 19 20 22 21 19 18 16 15 14 12 7 4 3 3 2 2 2 2 2 2 1 2 2 3 4 5 5 5 5 5 4 4 4 5 5 5 5 5 6 5 5 4 4 4 4 4 4 4 4 4 4 4 5 5 5 5 6 6 7 7 8 8 8 9 9 9 10
6 6 7 7 8 8 7 7 8 9 11 12 12 12 12 14 15 16 17 17 16 15 14 13 12 11 9 8 7 8 10 12 14 16 17 19 21 23 25 26 28 29 28 25 21 16 11 7 4 3 3 3 2 2 2 2 2 2 2 2 3 4 5 6 6 5 5 4 5 5 5 5 5 6 6 6 5 5 4 4 4 4 4 4 4 4 4 4 4 5 5 5 5 6 6 7 7 8 8 8 9 9 10
6 7 7 8 8 8 8 8 9 10 11 12 12 13 13 14 15 17 17 17 17 16 15 14 13 11 10 8 8 9 11 13 15 17 18 21 23 25 26 28 33 38 41 40 33 24 15 10 6 4 3 3 3 2 2 2 2 2 2 2 3 4 5 6 6 6 5 5 5 5 5 5 6 6 6 6 6 5 5 5 4 4 4 4 4 4 4 4 4 4 5 5 5 5 6 6 7 7 8 8 9 9 10
6 7 8 8 9 8 8 8 9 10 12 13 13 13 14 15 16 17 18 18 17 16 16 15 14 12 10 9 8 9 11 14 16 18 19 22 24 26 27 28 31 36 41 44 41 34 25 16 10 6 3 3 3 2 2 2 2 2 2 2 3 4 5 6 6 6 6 5 5 6 6 6 6 6 6 6 6 6 5 5 5 4 4 4 4 4 4 4 4 4 5 5 5 5 6 6 6 7 7 8 8 9 9
7 7 8 9 9 9 8 8 10 11 13 13 13 13 14 15 17 18 18 18 18 17 17 16 15 13 11 9 9 10 12 15 18 19 20 22 24 26 28 29 32 38 43 47 48 44 37 28 18 10 4 4 3 3 2 2 2 2 2 3 3 4 5 6 6 6 6 6 6 6 7 7 7 7 7 7 6 6 6 5 5 5 4 4 4 4 4 4 4 4 4 5 5 5 5 6 6 6 7 7 8 8 9
7 7 8 9 9 9 8 9 10 11 13 14 14 14 14 16 17 18 19 19 18 18 18 17 16 14 12 10 9 10 12 16 19 21 22 24 26 27 29 31 36 42 48 52 54 53 49 41 30 20 10 7 4 3 3 3 3 3 3 4 4 5 5 6 7 7 7 7 7 7 8 8 8 8 7 7 7 6 6 6 6 5 5 5 4 4 4 4 4 4 4 4 4 5 5 5 6 6 6 7 7 8 8
7 8 9 9 9 9 8 9 10 12 14 14 14 14 15 16 18 18 19 19 19 19 18 18 17 15 12 10 9 10 13 17 20 23 25 26 27 28 29 33 38 44 49 54 57 59 59 50 41 30 19 11 7 4 3 4 4 5 5 5 5 6 6 6 7 7 7 7 8 9 10 10 9 9 8 8 7 7 7 6 6 6 5 5 5 4 4 4 4 4 4 4 4 4 5 5 5 6 6 6 7 7 8
Wind_Speed
47 47 48 48 49 49 50 50 51 51 51 52 52 52 53 53 53 53 54 54 54 54 55 55 55 56 56 56 57 57 57 58 58 58 58 59 59 59 59 60 60 60 60 61 61 62 62 62 61 61 61 61 61 62 63 63 63 63 63 62 61 61 61 61 61 61 62 62 61 60 59 58 58 58 58 58 59 60 60 60 60 59 59 58 57 57 56 54 53 52 51 50 50 49 48 47 47 46 45 46 47 47 48
48 49 49 50 51 51 52 52 53 53 53 54 54 54 55 55 55 56 56 56 56 56 57 57 57 58 58 58 59 59 59 60 60 60 60 61 61 61 62 62 62 62 62 62 62 63 63 63 63 63 63 63 63 63 64 64 65 65 65 64 64 63 62 62 62 62 63 63 63 62 61 60 60 59 59 59 59 60 60 61 61 61 60 60 59 58 57 56 55 54 53 52 51 50 49 49 48 47 46 46 46 47 48
50 50 51 51 52 53 53 54 54 55 55 56 56 57 57 57 58 58 58 59 59 59 59 60 60 60 60 61 61 61 61 62 62 62 63 63 63 64 64 64 64 64 64 64 64 64 64 65 65 65 65 65 65 64 65 65 66 66 66 66 66 65 64 64 63 63 64 64 64 64 63 63 62 61 60 60 60 60 61 61 61 62 62 61 61 60 59 58 57 56 54 54 53 52 51 50 49 48 47 47 47 47 48
51 52 52 53 54 54 55 55 56 57 57 58 58 59 59 60 60 60 61 61 61 62 62 62 62 63 63 63 64 64 64 65 65 65 65 66 66 66 66 67 67 67 67 67 66 66 66 66 66 66 67 67 67 67 66 67 67 67 68 68 68 67 67 66 65 65 65 65 65 65 65 65 64 63 62 62 61 61 61 61 62 62 62 63 63 62 61 60 59 57 56 55 54 54 53 52 51 49 48 48 47 47 47
53 53 54 55 55 56 57 57 58 58 59 59 60 61 61 62 62 63 63 63 64 64 64 65 65 65 66 66 66 67 67 68 68 68 68 69 69 69 70 70 70 70 69 69 69 69 69 68 68 68 68 69 69 69 69 68 68 68 69 69 69 69 69 69 68 67 66 66 66 66 67 66 66 65 64 64 63 62 62 62 62 62 63 63 64 64 63 62 61 59 58 57 56 55 55 54 52 51 50 49 49 48 47
54 55 56 56 57 58 58 59 59 60 61 61 62 63 63 64 64 65 66 66 66 67 67 67 68 68 68 69 69 70 70 71 71 71 72 72 72 73 73 73 73 73 73 73 72 72 72 71 71 71 70 70 71 71 71 70 70 70 70 71 71 71 71 71 71 70 69 68 67 67 67 68 68 67 66 66 65 64 63 63 62 62 63 64 64 65 64 64 63 61 60 59 58 57 56 55 54 53 52 51 50 49 48
56 57 57 58 59 59 60 60 61 62 62 63 64 65 65 66 67 67 68 69 69 70 70 71 71 71 72 72 73 73 74 74 74 75 75 76 76 76 76 76 76 76 76 76 76 76 75 75 74 74 73 73 73 73 73 73 72 72 72 72 72 73 73 73 73 72 72 70 69 68 68 68 69 69 68 68 67 66 65 64 64 63 63 64 64 65 65 65 64 63 62 61 60 59 58 57 56 55 54 53 52 51 50
57 58 59 59 60 61 61 62 63 63 64 65 66 66 67 68 69 69 70 71 72 73 73 74 75 75 76 76 77 78 78 78 79 79 80 80 80 80 80 80 80 80 80 79 79 79 79 78 78 77 77 76 75 75 75 75 74 74 74 74 74 74 75 75 75 75 74 73 72 71 70 69 70 70 70 69 69 68 67 66 65 65 64 64 65 65 66 66 66 65 64 63 61 60 59 59 58 57 56 54 53 52 51
58 59 60 60 61 62 63 63 64 65 65 66 67 68 69 69 70 71 72 73 74 75 76 77 78 79 79 80 81 82 82 83 83 83 84 84 84 85 85 84 84 84 83 83 83 82 82 82 81 80 80 79 79 78 77 77 77 77 76 76 76 76 76 76 77 77 76 76 75 73 72 71 71 71 71 71 70 70 69 68 67 66 66 65 65 65 66 67 67 66 66 65 64 62 61 60 59 59 58 56 55 54 53
59 60 60 61 62 63 64 65 65 66 67 68 68 69 70 71 72 73 74 75 76 77 78 79 81 82 83 84 84 85 86 86 87 87 88 88 88 88 88 88 88 88 88 87 87 86 86 85 85 84 83 82 82 81 80 80 79 79 79 78 78 78 78 78 78 78 78 78 77 76 75 74 72 72 72 72 72 72 71 70 69 68 67 67 66 66 66 67 67 67 67 67 66 64 63 62 61 60 60 59 57 56 54
60 61 61 62 63 64 65 66 66 67 68 69 70 71 72 73 74 75 76 77 78 80 81 82 83 84 86 87 88 89 89 90 91 91 91 92 92 92 92 92 92 92 91 91 90 90 90 89 88 88 87 86 85 84 84 83 82 82 81 81 81 80 80 80 80 80 80 80 79 79 78 76 75 74 73 73 73 73 73 72 71 70 69 68 68 67 67 67 67 68 68 68 68 67 65 64 63 62 61 60 59 58 56
61 62 62 63 64 65 66 67 67 68 69 70 71 72 73 74 76 77 78 79 81 82 84 85 86 87 89 90 91 92 93 93 94 95 95 95 96 96 96 96 95 95 95 94 94 94 94 93 92 91 90 89 88 88 87 86 85 84 84 84 83 83 82 82 81 81 82 81 81 81 80 79 78 76 75 74 74 74 74 74 73 72 71 70 69 69 68 67 68 68 69 69 69 68 68 66 65 64 63 62 61 60 58
62 63 63 64 65 66 67 68 69 70 71 72 73 74 75 76 78 79 81 82 84 85 87 88 89 91 92 93 94 95 96 97 98 99 99 99 100 100 100 100 99 99 99 98 98 97 97 97 96 95 94 93 92 91 90 89 88 87 87 86 86 86 85 84 84 83 83 83 83 83 82 82 81 79 78 76 76 75 76 75 75 74 73 72 71 70 69 69 68 69 69 70 70 70 70 68 67 66 65 64 63 62 61
63 63 64 65 66 67 68 69 70 71 72 73 74 76 77 79 80 82 83 85 87 88 90 91 92 94 95 96 98 99 100 101 102 103 103 104 104 104 104 104 104 103 103 102 102 102 101 100 100 99 98 97 96 95 94 93 91 91 90 89 89 88 88 87 86 85 85 85 85 85 84 84 83 82 80 79 78 77 77 77 77 76 75 74 73 72 71 70 70 69 69 70 71 71 71 71 69 68 67 66 65 64 63
64 65 65 66 67 68 69 70 71 72 73 75 76 78 79 81 82 84 86 88 89 91 93 94 96 97 99 100 101 103 104 105 106 107 107 108 108 109 109 109 108 108 108 107 106 106 105 105 104 103 102 101 100 99 98 96 95 94 93 92 91 91 91 90 89 88 87 87 87 86 86 85 85 84 83 82 80 79 78 78 78 78 77 76 75 74 73 72 71 71 70 70 71 72 72 72 71 70 69 68 67 66 65
65 66 67 67 68 69 70 71 72 73 75 76 78 80 81 83 85 87 89 90 92 94 96 98 99 101 103 104 105 106 107 108 109 110 111 112 112 112 113 113 113 112 112 111 111 110 109 109 108 107 106 105 104 103 102 100 99 98 97 96 95 94 93 93 92 91 90 89 89 88 88 87 87 86 85 84 83 82 81 80 79 79 78 78 77 76 75 74 73 72 72 71 71 72 73 73 73 72 71 70 69 68 66
66 67 68 69 69 70 71 72 74 75 76 78 80 82 83 85 87 89 91 93 95 97 99 101 103 104 106 107 109 110 111 112 112 113 114 114 115 115 116 116 116 116 115 115 115 114 113 113 112 111 110 109 108 107 106 104 103 101 100 100 99 97 96 95 94 94 93 92 91 90 90 89 89 88 87 87 85 84 83 82 81 80 80 80 79 78 77 76 75 74 73 73 72 72 73 74 74 74 73 72 71 70 68
66 68 69 70 71 72 73 74 75 77 78 80 82 84 86 88 90 92 94 96 98 100 102 104 106 107 109 110 111 112 113 114 115 115 116 116 117 117 117 118 118 118 118 118 117 117 116 116 115 115 114 113 112 111 110 108 107 105 104 103 102 101 100 98 97 96 96 95 94 93 92 91 91 90 90 89 88 87 85 84 83 82 81 81 81 80 79 78 77 76 75 74 74 73 74 74 75 75 75 74 73 72 70
67 68 70 71 72 73 74 76 77 78 80 82 84 86 88 90 92 94 96 99 101 103 105 107 108 110 111 112 113 114 115 116 116 117 117 117 117 118 118 118 118 118 118 119 119 119 118 118 118 117 116 116 115 115 113 112 111 110 108 107 106 105 104 102 101 99 98 97 96 95 94 94 93 92 92 91 90 89 88 86 85 84 83 82 82 82 81 80 79 78 77 76 75 75 74 75 75 76 76 76 75 74 72
68 69 70 72 73 74 75 77 78 80 82 84 86 88 90 92 94 97 99 101 103 106 107 109 111 112 113 114 115 115 116 116 116 117 117 117 117 117 117 117 117 117 117 118 118 118 118 118 118 118 118 118 117 117 116 115 114 113 112 111 110 108 107 106 104 103 101 100 99 98 97 96 95 95 94 93 92 91 90 89 87 86 85 84 84 83 83 82 81 80 79 78 77 76 76 75 76 76 77 77 76 75 74
69 70 71 73 74 75 77 78 80 81 83 85 88 90 92 94 97 99 101 104 106 108 110 111 112 113 114 114 115 115 115 116 115 115 115 115 115 115 114 114 114 114 114 115 115 115 116 116 117 117 118 118 118 118 117 117 116 116 115 114 113 112 111 109 108 106 105 103 102 101 100 99 98 97 96 95 94 93 92 91 90 89 87 86 85 85 84 84 83 82 81 80 79 78 77 76 76 76 77 77 77 77 76
71 72 73 74 75 76 78 79 81 83 85 87 89 92 94 97 99 102 104 106 108 110 111 112 113 114 114 114 114 114 114 114 113 112 112 111 111 110 110 109 109 109 109 110 110 110 111 112 113 114 115 116 117 117 117 117 117 117 117 117 116 115 114 113 111 110 108 107 105 103 102 101 100 99 98 97 96 95 94 93 92 91 90 89 88 87 86 85 85 84 83 82 81 80 79 78 77 77 77 78 78 78 78
72 73 74 75 76 78 79 81 83 85 87 89 91 94 97 99 102 104 106 108 110 111 112 112 113 113 113 113 112 112 111 110 109 108 107 106 105 104 103 103 102 102 102 103 103 104 105 106 107 108 110 112 113 115 116 116 117 117 118 118 118 117 117 116 114 113 112 110 108 106 105 103 102 101 100 99 98 97 97 95 94 93 92 91 90 89 88 87 86 86 85 84 83 82 81 80 79 78 78 78 79 79 79
73 74 75 76 78 79 81 82 84 87 89 91 94 96 99 102 104 106 108 110 111 112 112 112 112 112 111 110 109 108 106 104 103 101 99 98 97 96 95 95 94 94 95 95 96 96 97 98 100 101 103 106 108 110 112 113 115 116 117 117 118 118 118 118 117 116 115 113 112 110 108 106 105 104 103 101 101 100 99 98 97 96 94 93 92 91 90 89 88 87 86 86 85 84 83 82 81 80 79 79 79 80 80
74 75 76 78 79 81 82 84 86 89 91 94 96 99 101 104 106 108 109 111 111 112 112 111 110 109 107 106 104 102 99 97 95 93 91 90 89 88 87 87 87 87 87 87 88 89 90 91 93 94 96 98 101 103 106 108 110 112 114 115 116 117 118 118 118 118 117 116 115 113 111 109 107 106 105 104 103 102 101 100 99 98 97 95 94 93 92 91 90 89 88 87 86 86 85 84 83 81 80 80 80 80 81
75 76 77 79 80 82 84 86 88 91 94 96 99 101 103 106 107 109 110 110 111 111 110 109 107 105 102 99 97 94 92 89 87 86 85 83 82 82 82 81 81 81 82 82 83 84 84 85 87 88 89 91 93 96 98 102 104 107 110 112 114 115 116 117 118 119 118 118 117 116 114 112 110 108 107 106 105 104 103 102 101 100 99 98 96 95 94 93 92 91 90 89 88 87 86 85 84 83 82 81 81 81 81
75 77 78 80 81 83 86 88 91 93 96 99 101 103 105 107 108 109 109 110 109 108 107 105 102 99 96 93 90 87 85 83 82 81 80 80 79 79 79 79 79 79 80 80 81 81 82 82 83 84 85 86 88 89 92 95 97 101 104 107 109 111 113 115 117 118 118 119 118 118 117 115 113 111 109 108 107 106 105 104 103 102 101 100 99 97 96 95 94 93 92 91 90 89 88 87 86 85 84 83 82 82 82
76 77 79 81 83 85 87 90 93 95 98 101 103 105 106 107 108 109 108 108 106 105 102 100 96 93 90 86 84 82 81 79 79 78 78 79 79 79 79 79 79 79 80 80 80 81 81 81 82 83 83 84 84 85 87 89 91 94 97 101 104 106 109 111 113 116 117 118 119 119 118 117 116 114 112 110 109 108 107 106 105 104 103 102 101 99 98 97 96 95 94 93 92 91 90 89 88 87 86 85 84 83 82
77 78 80 82 84 86 89 92 95 97 100 102 104 106 107 107 108 107 107 105 103 100 97 94 90 87 84 82 80 79 79 78 78 78 79 79 79 79 79 79 80 80 80 80 80 81 81 81 82 82 83 83 84 84 85 85 87 88 91 94 98 101 104 107 109 112 114 116 117 118 119 119 118 117 115 113 111 109 108 108 107 106 105 104 103 102 100 99 98 97 95 94 93 93 92 91 90 89 88 87 86 84 84
78 79 81 83 86 88 91 94 96 99 101 103 105 106 107 107 106 105 104 101 98 95 92 88 85 83 81 80 79 79 79 79 79 79 79 79 79 79 79 79 79 79 80 80 80 80 80 81 81 82 82 83 84 84 84 84 85 85 87 89 92 95 98 101 105 108 111 113 115 117 118 118 119 118 117 115 113 111 110 109 109 108 107 106 105 104 103 101 100 99 97 96 95 94 93 92 91 90 89 88 87 86 85
79 81 83 85 87 90 93 95 98 100 102 104 105 106 106 105 104 102 100 97 93 90 87 84 82 81 80 80 80 80 80 80 80 80 80 80 79 79 79 79 79 79 79 79 79 79 80 80 80 81 82 82 83 84 84 85 85 84 85 86 88 90 93 96 100 103 106 109 112 114 116 117 118 119 118 117 115 113 112 111 110 109 108 107 107 106 105 104 102 101 99 98 97 96 95 94 93 92 91 90 89 88 87
80 82 84 86 89 92 94 97 99 101 103 104 104 105 104 103 101 99 96 92 89 86 83 82 81 80 80 81 81 81 81 81 81 80 80 80 79 79 79 79 79 79 80 80 80 80 80 80 80 81 81 82 83 84 84 85 85 85 85 85 86 87 89 92 95 98 102 105 108 111 113 115 117 118 118 118 117 116 114 112 111 111 110 109 109 108 107 106 104 103 101 100 99 98 97 96 95 94 93 92 91 90 88
81 83 86 88 91 93 96 98 100 102 103 103 103 103 102 101 98 95 92 88 85 83 81 81 80 81 81 82 82 82 82 81 81 80 80 80 80 80 80 80 81 81 81 81 81 82 82 82 82 82 82 82 83 83 84 85 85 85 85 85 85 86 87 88 91 94 97 100 104 107 110 112 114 116 117 118 118 117 116 114 113 112 111 111 110 110 109 108 106 105 103 102 101 99 98 97 96 95 94 93 92 91 90
83 85 87 90 92 95 97 99 100 102 102 102 102 101 100 97 95 91 88 85 83 81 81 81 81 81 82 82 82 82 81 81 81 80 80 81 81 81 82 82 83 83 83 84 84 84 84 84 84 84 84 84 84 84 85 85 85 85 85 85 85 85 86 87 88 90 93 96 99 103 106 109 111 114 116 117 118 118 117 116 114 113 113 113 112 111 110 109 108 107 105 104 102 101 100 99 98 97 96 95 94 93 92
84 86 89 91 94 96 98 99 100 101 101 101 100 99 96 94 91 87 85 82 81 81 81 81 81 82 82 82 81 81 81 81 81 81 81 82 82 83 84 84 85 85 85 85 85 85 86 85 85 86 86 85 86 86 86 86 86 86 86 85 85 85 86 86 87 88 90 92 95 98 102 105 108 111 113 115 117 118 118 117 116 115 114 114 113 113 112 111 110 109 107 106 104 103 102 101 100 99 98 97 96 95 94
85 88 90 92 95 97 98 99 100 100 100 99 98 96 93 90 87 84 82 81 80 81 81 81 82 82 81 81 81 81 81 81 81 82 82 83 84 84 85 85 85 85 85 84 85 85 85 85 85 86 86 87 87 87 87 87 87 87 86 86 86 86 86 86 87 87 88 90 92 94 98 101 104 107 110 113 115 117 117 118 117 116 115 115 114 114 113 113 112 110 109 107 106 104 103 102 101 100 99 98 97 96 95
87 89 91 93 95 97 98 99 100 99 99 97 95 93 90 87 84 82 81 80 81 81 81 82 81 81 80 80 80 80 81 81 82 83 83 84 84 84 84 84 83 83 82 81 81 81 81 82 83 84 84 86 87 88 88 89 88 88 88 87 86 86 86 86 87 87 88 88 90 91 94 97 100 104 107 110 113 115 116 117 117 117 116 116 115 115 115 114 113 112 111 109 108 106 105 104 103 102 101 100 99 98 97
88 90 92 94 96 97 98 99 99 98 97 95 93 90 87 84 82 81 80 80 81 81 82 81 81 80 80 80 80 81 81 82 83 83 84 83 83 82 81 80 79 78 77 76 76 75 75 76 77 78 80 82 84 86 87 88 89 89 89 88 87 86 86 86 86 87 87 88 89 90 91 94 97 100 104 107 110 113 115 116 117 117 117 116 116 117 116 116 115 113 112 111 109 108 107 106 105 104 103 102 101 100 98
89 91 93 95 96 97 98 98 97 96 95 93 90 87 84 82 81 80 80 81 81 81 81 81 80 80 79 80 80 81 82 83 83 83 83 82 81 79 77 76 74 73 72 71 70 70 70 70 71 72 74 76 79 81 84 86 88 89 90 89 88 87 86 86 86 87 88 88 88 89 90 92 94 97 101 104 108 110 113 115 116 117 117 117 117 117 117 117 116 115 113 112 111 110 108 107 106 105 104 103 102 101 100
90 92 94 95 96 97 97 97 96 94 93 90 87 85 83 81 80 80 80 81 81 81 80 80 80 79 80 80 80 81 82 83 83 82 81 79 77 74 72 70 69 68 67 67 66 66 66 66 67 68 69 71 73 76 78 81 85 87 89 89 89 88 87 87 87 87 88 88 89 89 90 91 93 95 98 102 105 108 111 113 115 117 117 118 118 118 118 117 117 116 115 113 112 111 110 109 108 107 106 105 104 102 101
91 93 94 95 96 96 96 95 94 93 90 88 85 83 81 80 80 80 81 81 81 80 80 79 79 79 80 80 81 82 82 82 81 80 77 74 72 69 67 66 65 65 65 65 65 65 65 65 65 66 66 68 69 70 72 76 79 83 86 88 89 89 88 87 87 87 88 89 89 90 90 91 92 94 96 99 103 106 109 112 114 116 117 118 118 118 118 118 117 116 116 115 114 113 112 111 110 109 107 106 105 104 103
91 93 94 95 96 96 95 94 93 91 88 85 83 81 80 80 80 81 81 81 80 79 79 79 79 80 80 81 82 82 82 80 78 76 73 70 67 65 64 63 63 64 64 65 65 65 65 65 65 66 66 66 67 67 68 71 74 77 81 85 87 89 89 88 88 88 88 89 89 90 91 91 92 93 94 97 100 104 107 110 113 115 117 117 118 118 118 118 117 117 117 116 116 115 114 113 112 110 109 108 106 105 104
92 93 94 95 95 95 94 93 91 89 86 83 81 80 80 80 80 81 81 80 79 79 79 79 79 80 81 81 82 81 80 78 75 72 68 66 64 63 63 63 63 64 65 65 66 66 66 66 66 66 66 66 66 66 67 67 69 72 76 80 84 87 89 89 89 89 89 89 90 90 91 91 92 92 93 96 98 102 105 109 111 114 116 117 117 117 117 117 118 118 118 118 118 117 116 115 113 112 110 109 108 107 106
92 93 94 94 94 94 93 91 89 87 84 82 80 79 79 80 81 81 80 80 79 78 78 78 79 79 80 81 81 80 78 75 72 68 65 63 62 62 63 64 64 65 66 66 66 66 66 66 66 66 66 66 66 66 66 66 66 68 71 75 79 83 86 88 89 89 89 90 90 91 91 92 92 93 93 95 97 100 103 107 110 112 114 115 116 117 117 118 118 119 119 119 119 118 117 116 115 113 111 110 109 108 107
92 93 94 94 94 93 92 90 87 85 82 80 79 79 79 80 80 80 80 79 78 78 78 78 79 79 80 80 80 78 76 72 69 66 63 62 62 63 64 64 65 65 66 66 66 65 65 65 65 65 65 65 65 65 65 65 65 66 68 70 74 79 83 87 89 90 90 90 90 91 91 92 93 93 93 94 95 98 101 104 108 110 112 114 115 116 117 118 119 120 121 121 120 119 118 117 116 114 113 112 110 110 108
92 93 93 93 93 92 90 88 86 83 81 79 79 79 80 80 80 80 79 79 78 78 78 78 79 79 79 79 78 76 73 70 67 64 63 62 63 63 64 65 65 65 64 64 63 63 63 63 63 63 63 63 64 64 64 64 65 65 66 67 70 75 79 84 87 89 90 90 91 91 92 92 93 93 93 93 94 96 99 102 105 108 111 113 114 116 118 119 120 121 121 121 120 120 119 118 117 116 114 113 112 111 110
92 92 92 92 91 90 89 87 84 82 80 79 79 79 80 80 80 79 78 78 78 78 78 78 79 79 78 77 75 73 70 68 65 64 63 63 63 64 64 64 63 62 61 60 59 59 59 59 59 60 60 60 61 61 62 63 64 64 65 66 68 71 75 80 84 88 90 91 91 91 91 92 92 93 93 93 94 95 97 100 103 106 109 111 113 115 117 119 120 121 121 121 120 120 119 118 118 117 116 115 114 113 111
92 92 92 91 90 89 87 85 83 80 79 78 79 79 80 80 79 79 78 78 78 78 78 78 79 78 77 75 72 70 67 66 64 63 63 63 63 63 63 62 61 59 58 56 55 54 54 54 55 56 57 57 58 58 59 60 62 63 64 65 66 68 72 76 81 86 89 91 91 91 91 91 92 92 93 93 93 94 95 97 100 103 107 109 112 115 117 118 120 120 121 121 120 120 119 119 119 118 117 116 115 114 113
92 92 91 90 89 88 86 84 81 80 78 78 78 79 80 79 79 78 78 78 78 78 78 78 78 78 76 73 70 67 65 64 63 63 63 63 64 63 62 61 59 57 55 52 51 49 49 49 50 52 54 54 54 54 55 57 59 61 63 64 65 66 69 73 78 84 88 90 91 91 91 91 91 92 92 93 93 93 94 95 98 101 104 108 111 114 116 118 119 120 120 121 120 120 120 120 120 119 119 118 117 116 114
91 91 90 89 88 86 84 82 80 79 78 78 78 79 79 79 78 78 77 77 78 78 78 78 78 77 75 72 68 66 64 63 63 63 63 64 64 64 63 61 59 56 53 49 46 44 43 43 45 47 49 51 51 51 51 53 56 59 62 63 65 66 68 72 76 81 85 88 90 91 91 90 90 91 91 92 92 92 92 93 95 98 102 106 109 112 115 117 118 119 120 121 121 121 121 121 120 120 120 119 118 117 116
90 90 89 88 87 85 83 81 79 78 78 78 79 79 79 79 78 77 77 77 77 78 78 78 78 76 73 70 66 64 63 63 63 63 64 64 64 64 64 62 60 57 52 47 42 39 37 37 39 42 45 47 47 47 47 49 52 55 59 62 64 66 68 70 74 79 83 86 88 90 90 90 89 89 89 89 90 90 91 91 93 96 99 104 108 111 114 116 117 119 120 121 121 122 122 121 121 121 121 120 119 118 117
90 89 88 87 86 84 82 80 78 77 77 78 79 79 79 78 77 76 76 76 76 77 77 78 77 75 72 68 65 63 62 62 62 63 63 64 64 64 63 62 61 59 55 49 42 36 33 32 33 36 40 43 43 43 43 45 48 52 56 60 64 66 68 70 73 76 80 84 87 88 89 88 88 87 87 87 88 89 90 91 92 94 98 102 106 109 112 114 116 118 120 121 122 122 122 122 122 122 121 121 120 119 118
89 89 88 86 85 83 81 79 78 77 77 78 78 78 78 77 76 76 76 76 76 77 77 77 77 74 71 67 64 61 60 60 61 62 63 63 64 64 63 62 61 59 56 52 45 38 32 29 28 30 35 38 39 39 39 41 44 48 53 58 62 65 67 69 71 74 77 81 84 86 87 86 86 85 84 85 86 87 89 90 92 94 96 100 104 107 110 113 115 117 119 120 122 123 123 123 122 122 122 121 120 119 118
89 88 87 85 84 82 80 78 77 77 77 78 78 78 78 77 76 75 75 75 76 76 77 77 76 74 71 67 63 61 59 59 60 61 61 62 62 62 63 61 60 57 55 52 48 42 36 30 27 27 31 34 35 35 35 37 40 44 49 55 60 63 66 67 69 71 74 78 81 83 84 84 84 83 83 83 84 86 88 89 91 93 95 98 101 104 108 111 113 115 117 120 121 122 123 123 122 122 122 121 120 120 119
88 87 86 85 83 81 79 77 76 76 77 78 78 78 77 76 75 75 74 75 75 76 77 77 76 74 71 67 64 61 59 58 59 59 60 60 60 60 60 60 59 57 55 51 49 45 40 33 28 26 29 31 31 31 31 33 36 40 45 51 56 60 63 65 67 69 71 75 78 80 81 82 82 82 82 82 83 85 86 88 90 92 94 96 98 101 105 108 111 113 116 118 120 122 122 123 122 122 122 122 121 121 120
87 86 85 84 82 80 78 76 76 76 77 78 78 78 77 76 75 74 74 74 75 76 76 76 76 74 71 67 64 61 59 58 58 58 58 58 58 58 57 57 56 57 56 54 51 46 42 36 30 26 27 28 28 27 27 29 32 36 40 46 52 56 60 62 64 66 69 72 75 77 79 80 81 81 81 82 82 83 85 87 89 91 93 94 96 99 102 106 109 111 114 116 118 120 122 122 122 122 122 122 122 122 121
86 86 84 83 81 79 77 76 75 76 77 77 78 77 76 75 74 74 74 74 74 75 76 76 75 73 71 67 64 61 60 58 58 57 57 56 56 56 55 54 52 53 54 53 52 48 43 37 32 29 26 25 25 24 24 25 28 32 36 41 47 52 57 60 62 64 66 69 72 75 77 78 79 80 80 81 81 82 83 85 87 89 91 93 95 97 100 103 106 109 112 114 117 119 120 121 122 122 122 123 123 122 122
86 85 83 82 80 78 76 75 75 75 76 77 77 77 76 75 74 73 73 73 74 74 75 76 75 73 71 67 64 61 60 58 58 57 56 55 54 54 54 52 51 50 50 50 50 48 45 40 35 31 26 24 23 22 21 22 24 28 32 37 42 48 53 57 59 61 64 66 69 72 75 76 78 78 79 79 80 81 82 84 85 88 90 91 93 95 98 101 104 107 110 112 115 117 119 120 122 122 123 123 123 123 123
85 84 82 81 79 77 75 74 74 75 76 77 77 76 76 75 74 73 72 72 73 74 75 75 75 73 70 67 64 61 59 58 57 56 56 55 54 53 53 52 50 49 49 49 48 47 45 43 39 34 28 25 22 20 19 19 21 24 28 32 38 44 49 53 56 59 61 64 67 70 72 74 76 77 77 78 78 79 80 82 83 85 88 90 92 94 97 99 102 105 108 111 113 115 117 119 121 122 122 123 123 123 123
84 83 81 80 78 76 75 74 74 75 76 76 77 76 75 74 73 72 72 72 72 73 74 74 74 73 70 67 63 60 58 57 56 55 55 54 54 53 52 51 49 48 48 48 47 45 44 42 40 37 32 27 23 19 17 16 18 21 24 28 33 39 45 50 53 56 59 62 65 67 70 72 73 74 75 76 77 78 79 80 82 84 86 88 91 93 95 98 101 104 106 109 111 114 116 118 120 121 122 122 123 123 123
83 82 80 79 77 75 74 73 74 75 76 76 76 76 75 73 73 72 71 71 71 72 73 74 74 73 70 66 63 59 57 55 54 54 54 53 53 53 52 50 48 46 46 46 45 43 42 40 39 37 33 29 24 20 16 14 15 18 21 25 30 35 41 46 50 53 56 59 62 65 68 70 71 72 73 74 75 76 77 78 80 82 84 87 89 92 94 96 99 102 104 107 109 112 114 116 118 120 121 122 122 123 123
Wind_Direction
304 303 302 302 301 300 299 299 298 297 296 295 294 293 292 291 290 289 288 287 286 285 284 283 282 281 280 279 278 277 276 276 275 274 273 272 271 270 270 269 268 268 268 268 267 267 266 264 263 261 260 259 259 258 258 257 256 255 254 252 251 249 248 248 248 248 248 248 247 246 244 243 242 241 241 240 239 238 237 236 235 234 234 234 234 234 234 235 235 236 236 237 237 236 235 233 232 232 231 230 230 229 229
305 304 303 303 302 302 301 300 299 299 298 297 296 295 295 293 292 291 290 289 288 287 286 285 284 283 282 281 280 279 278 277 276 275 274 273 272 271 270 269 268 268 267 267 266 266 266 265 264 262 261 259 258 258 258 257 257 256 255 254 252 251 249 248 247 247 247 247 247 246 245 243 242 241 241 240 239 238 237 236 235 234 234 233 233 233 233 234 234 234 235 236 236 236 235 234 233 232 231 231 230 229 229
306 305 305 304 303 303 302 302 301 300 300 299 298 297 296 296 294 294 293 291 290 289 288 287 286 285 284 283 281 280 279 278 277 276 275 274 273 272 271 270 269 268 267 266 265 265 265 264 264 263 262 260 259 257 257 257 257 256 256 255 254 252 251 249 247 246 246 246 246 246 245 244 242 241 240 240 239 239 237 236 235 234 234 233 233 233 233 233 233 233 234 235 235 235 235 234 233 232 232 231 230 229 229
307 307 306 305 305 304 304 303 302 302 301 300 299 299 298 297 296 295 294 293 292 291 290 289 288 287 286 285 283 282 281 280 279 278 277 276 275 273 272 271 270 269 268 267 266 265 264 263 263 263 262 261 260 258 257 256 256 256 256 255 255 254 252 251 249 247 245 245 245 245 245 244 243 241 240 240 239 239 238 237 236 235 234 233 233 232 232 232 232 232 233 234 234 235 235 234 233 232 232 231 230 230 230
308 308 307 307 306 305 305 304 303 302 302 301 300 299 298 297 296 295 294 293 292 291 290 289 288 287 286 285 284 283 282 281 280 279 278 277 276 275 274 273 271 270 269 268 266 265 264 263 262 262 262 261 261 259 258 256 256 255 255 255 255 254 253 252 250 248 246 245 244 244 244 244 243 242 240 239 239 238 238 237 236 235 234 233 232 232 232 231 231 231 232 232 233 234 234 234 233 233 232 231 230 230 230
309 309 308 308 307 306 305 305 304 303 302 301 300 299 298 297 296 295 294 293 292 291 290 289 288 287 286 284 284 283 282 281 280 279 278 277 276 276 275 274 272 271 270 269 268 266 265 264 262 261 261 260 260 260 259 257 256 255 255 254 254 254 254 253 252 250 248 246 244 243 243 243 243 243 241 240 239 238 237 237 236 235 234 233 232 232 231 231 230 230 231 231 232 233 233 233 233 233 232 231 231 230 230
310 309 309 308 307 306 305 304 304 303 302 301 300 299 298 297 296 295 294 293 292 291 290 289 287 286 285 284 283 282 281 280 279 278 278 277 276 275 274 273 272 272 270 269 268 267 266 264 263 262 261 260 259 259 259 258 256 255 254 254 253 253 253 253 252 251 249 247 245 243 242 242 242 242 242 240 239 238 237 237 236 235 234 233 233 232 231 231 230 230 230 230 231 232 232 233 233 233 232 231 231 230 229
310 309 308 308 307 306 305 304 303 302 301 300 299 298 297 297 296 295 294 293 292 291 290 289 288 287 286 285 284 283 282 281 280 279 278 277 276 275 274 273 272 271 270 269 268 267 266 265 264 262 261 260 259 258 258 258 257 256 254 253 253 253 252 252 252 251 250 249 247 245 243 242 241 241 242 241 240 238 237 236 236 235 234 234 233 232 231 231 230 229 229 229 230 231 231 232 232 232 232 231 231 230 229
310 309 308 307 306 306 305 304 303 302 301 300 299 298 297 297 296 295 294 293 292 291 291 290 289 288 287 286 285 284 283 282 281 280 279 278 277 276 274 273 272 271 270 269 268 267 266 265 264 262 261 260 259 258 257 257 257 256 255 254 253 252 252 251 251 251 250 250 248 246 244 242 241 241 241 241 240 239 237 236 235 235 234 234 233 232 231 231 230 229 229 228 229 230 230 231 231 232 232 231 231 230 229
309 309 308 307 306 305 305 304 303 302 301 300 299 298 298 297 296 295 294 293 293 292 291 290 290 289 288 287 286 285 285 284 283 281 280 279 278 277 276 274 273 272 271 269 268 267 265 264 263 262 261 260 259 258 257 256 256 256 255 254 253 252 251 251 251 250 250 250 249 247 246 243 241 240 240 240 240 239 238 236 235 234 234 233 233 232 231 231 230 229 228 228 228 228 229 230 231 231 231 231 231 230 229
309 308 308 307 306 305 304 304 303 302 301 300 300 299 298 297 296 295 295 294 293 292 292 291 290 290 289 288 287 286 285 284 283 282 281 280 279 278 276 275 274 273 271 270 269 267 266 264 263 262 260 259 258 257 257 256 255 255 255 254 253 252 251 250 250 250 249 249 249 248 247 245 243 241 239 239 239 239 238 237 236 234 233 233 232 232 232 231 230 229 228 227 227 227 228 229 230 230 230 230 230 230 230
309 308 308 307 306 305 304 304 303 302 301 300 300 299 298 298 297 296 295 295 294 293 292 292 291 290 289 289 288 287 286 285 284 283 282 281 280 278 277 276 275 273 272 271 269 268 267 265 264 262 260 259 258 257 256 255 255 254 254 254 253 252 251 250 249 249 249 248 248 248 247 246 244 242 240 239 238 238 238 237 236 235 233 233 232 232 231 231 230 229 228 227 227 227 227 228 228 229 230 230 230 230 230
309 308 307 307 306 305 304 304 303 302 301 301 300 299 299 298 297 297 296 296 295 294 293 293 292 291 290 289 289 288 287 286 285 284 283 282 280 279 278 276 275 274 272 271 270 269 267 266 265 263 261 259 258 256 255 254 253 253 253 253 253 252 251 250 249 248 248 248 247 247 246 246 245 243 241 239 238 238 237 237 236 235 234 233 232 231 231 231 230 229 228 227 227 226 226 227 227 228 229 229 229 230 230
309 308 307 307 306 305 304 304 303 302 302 301 300 300 299 299 298 298 297 297 296 295 295 294 293 292 291 290 290 289 288 287 286 285 283 282 281 280 279 277 276 275 273 272 270 269 268 267 265 264 262 260 259 257 255 254 253 252 252 252 252 252 251 250 249 248 247 247 247 246 246 245 245 244 242 240 238 237 237 237 236 236 234 233 232 231 230 230 230 229 228 228 227 226 226 226 226 227 228 228 229 229 229
309 308 307 307 306 305 304 304 303 303 302 302 301 301 300 300 299 299 298 297 297 296 296 295 294 293 292 291 290 289 288 287 286 285 284 283 282 281 279 278 277 275 274 273 271 270 268 267 266 264 263 261 260 258 256 254 252 251 251 250 250 250 251 250 249 248 247 247 246 246 245 245 244 244 243 241 239 238 236 236 236 235 235 233 232 231 230 230 229 229 228 228 227 226 225 225 226 226 227 227 228 228 229
309 308 307 307 306 306 305 304 304 303 303 302 302 301 301 301 300 300 299 298 298 297 296 296 295 294 293 292 291 290 289 288 286 286 285 284 283 282 280 279 278 276 275 273 272 270 269 267 266 265 263 262 260 259 257 255 253 252 250 250 249 249 249 249 249 248 247 246 246 245 245 244 244 243 243 242 240 238 237 236 235 235 235 234 232 231 230 229 229 229 228 228 227 226 225 225 225 225 226 226 227 227 228
309 308 308 307 307 306 306 305 305 304 304 303 303 302 302 301 301 300 300 299 298 298 297 296 295 294 293 292 291 290 289 288 287 286 285 284 283 282 281 280 279 277 276 274 273 271 270 268 267 265 264 262 261 259 257 256 254 252 251 250 249 248 248 248 248 248 247 246 245 245 244 244 243 243 242 242 240 239 237 236 235 234 234 234 233 232 230 229 229 228 228 227 227 226 226 225 225 225 225 225 226 227 227
309 309 308 308 307 307 306 306 305 305 304 304 304 303 303 302 302 301 301 300 299 298 297 296 295 294 293 292 291 290 289 288 287 286 285 284 283 282 281 280 279 278 277 275 274 272 271 269 267 266 264 263 261 259 258 256 255 253 252 250 249 248 247 247 247 247 247 246 245 244 244 243 243 242 242 241 240 239 238 236 235 234 233 233 233 232 231 229 228 228 227 227 227 226 226 225 224 224 224 225 225 226 226
309 309 308 308 308 307 307 306 306 305 305 305 304 304 303 303 302 302 301 300 299 298 297 296 295 294 293 292 291 290 289 288 287 286 285 284 284 283 282 281 280 279 277 276 275 273 272 270 268 266 265 263 261 260 258 257 255 254 252 251 249 248 247 246 246 246 246 245 245 244 243 243 242 242 241 241 240 239 238 237 235 234 233 233 232 232 231 230 229 228 227 227 226 226 226 225 224 224 224 224 224 225 225
310 309 309 308 308 307 307 307 306 306 306 305 305 304 304 303 302 302 301 300 299 298 296 295 294 293 292 291 291 290 289 288 287 286 285 284 284 283 282 281 280 279 277 276 275 274 272 271 269 267 266 264 262 260 258 257 255 254 253 251 250 248 247 246 245 245 245 244 244 244 243 242 241 241 241 240 240 239 238 237 236 234 233 232 232 231 231 230 229 228 227 226 226 226 225 225 224 224 224 223 224 224 225
310 309 309 309 308 308 307 307 307 306 306 306 305 305 304 303 303 302 301 299 298 297 296 295 294 293 292 292 291 290 289 288 287 286 285 284 283 282 281 280 279 278 277 276 275 274 272 271 270 268 266 265 263 261 259 257 256 254 253 251 250 249 247 246 245 244 244 243 243 243 242 242 241 240 240 240 239 239 238 237 236 235 233 232 231 231 231 230 229 228 227 226 226 225 225 225 224 224 223 223 223 223 224
310 310 309 309 309 308 308 307 307 307 306 306 305 305 304 304 303 302 300 299 298 297 296 295 294 293 293 292 291 290 289 288 287 286 285 284 283 282 281 280 279 278 277 276 274 273 272 271 270 268 267 265 263 261 259 258 256 254 253 252 250 249 247 246 245 244 243 243 242 242 242 241 241 240 240 239 239 238 238 237 236 235 234 232 231 230 230 230 229 228 227 226 226 225 225 224 224 224 223 223 223 223 223
311 310 310 309 309 309 308 308 307 307 307 306 306 305 305 304 303 302 301 299 298 297 296 295 294 294 293 292 292 291 290 289 288 286 285 284 283 282 281 279 278 277 276 275 274 272 271 270 269 268 266 265 263 262 260 258 256 255 253 252 250 249 248 246 245 244 243 242 242 241 241 241 240 240 239 238 238 238 237 237 236 235 234 233 231 230 229 229 229 228 227 226 226 225 225 224 224 223 223 223 222 222 223
311 311 310 310 310 309 309 308 308 308 308 307 307 306 305 304 303 302 301 300 299 298 297 296 295 295 294 293 292 291 290 289 288 287 285 284 283 281 280 279 277 276 275 274 273 271 270 269 268 267 266 264 263 262 260 258 257 255 253 252 251 249 248 246 245 244 243 242 241 241 240 240 239 239 238 238 237 237 237 236 236 235 234 233 232 230 229 229 228 228 227 227 226 225 224 224 224 223 223 222 222 222 222
311 311 311 311 310 310 310 309 309 309 309 308 307 307 306 305 304 302 301 300 299 298 298 297 296 296 295 294 293 292 291 289 288 287 285 284 282 281 280 278 277 276 274 273 272 271 269 268 267 266 265 263 262 261 260 258 257 255 253 252 251 249 248 247 245 244 243 242 241 240 239 239 238 238 238 237 237 236 236 236 235 235 234 233 232 230 229 228 228 227 227 227 226 225 224 224 223 223 223 222 222 222 222
312 312 311 311 311 311 311 310 310 310 310 309 308 307 306 305 304 303 302 301 300 299 299 298 298 297 296 295 294 292 291 290 288 287 285 284 283 281 280 278 277 276 274 273 272 270 269 268 266 265 264 262 261 260 259 258 256 255 253 252 250 249 248 247 245 244 243 241 241 240 239 238 238 237 237 236 236 236 235 235 235 234 233 233 232 231 229 228 227 227 227 226 226 225 224 224 223 223 222 222 222 222 222
312 312 312 312 312 312 312 311 311 311 311 310 309 308 307 306 305 304 303 302 301 301 300 299 299 298 297 295 294 293 291 290 289 287 286 284 283 282 280 279 277 276 275 273 272 270 269 268 266 265 263 262 260 259 258 256 255 254 253 251 250 249 248 246 245 244 243 241 240 239 239 238 237 236 236 236 235 235 235 234 234 233 233 232 231 231 229 228 227 226 226 226 225 225 224 223 223 222 222 222 222 221 221
313 313 313 313 313 313 313 313 312 312 312 311 310 309 308 307 306 305 304 303 303 302 301 301 300 299 297 296 295 293 292 291 289 288 287 285 284 282 281 279 278 276 275 273 272 271 269 268 266 265 263 262 260 258 257 255 254 253 252 251 250 248 247 246 245 244 242 241 240 239 238 237 237 236 235 235 234 234 234 233 233 233 232 232 231 230 229 228 227 226 225 225 225 225 224 223 223 222 222 222 221 221 221
314 314 314 314 314 314 314 314 314 313 312 312 311 310 309 307 307 306 305 305 304 304 303 302 301 299 298 297 296 294 293 292 290 289 288 286 285 283 282 280 279 277 275 274 272 271 269 268 266 265 263 262 260 258 256 255 253 252 251 250 249 248 247 245 244 243 242 241 240 239 238 237 236 235 235 234 233 233 233 233 232 232 232 231 231 230 229 228 227 226 225 225 224 224 224 223 223 222 222 221 221 221 221
315 315 315 315 315 315 315 315 315 314 313 312 311 310 309 309 308 307 307 306 306 305 304 303 302 300 299 298 297 296 294 293 292 290 289 287 286 284 283 281 279 278 276 274 272 271 269 267 266 265 263 262 260 258 256 254 252 251 250 249 248 247 246 245 244 243 241 240 239 238 237 236 236 235 234 233 233 232 232 232 232 231 231 231 230 230 229 228 227 226 225 224 224 224 224 223 223 222 222 221 221 221 220
316 316 316 316 316 316 316 316 316 315 314 313 312 311 310 310 309 309 308 307 307 306 305 304 302 301 300 299 298 297 296 295 293 292 290 289 287 285 284 282 280 278 276 274 272 271 269 267 266 264 263 261 260 258 256 254 252 250 249 248 247 246 245 244 243 242 241 240 239 238 237 236 235 234 234 233 232 231 231 231 231 231 230 230 230 229 229 228 227 226 225 224 223 223 223 223 223 222 221 221 221 220 220
317 317 317 317 318 318 318 317 317 316 315 314 313 312 311 311 310 310 309 309 308 307 306 305 304 303 302 301 300 299 297 296 295 293 292 290 288 287 285 283 281 279 277 275 273 271 269 267 265 264 262 261 259 258 256 254 252 250 248 247 246 245 244 243 242 241 240 239 238 237 236 235 234 234 233 232 231 231 230 230 230 230 229 229 229 229 228 228 227 226 225 224 223 222 222 222 222 222 221 221 221 220 220
318 318 319 319 319 319 319 318 318 317 316 315 314 313 313 312 312 311 310 310 309 308 307 306 305 304 303 302 301 300 299 298 296 295 293 292 290 288 286 284 282 280 278 276 274 271 269 267 265 263 262 260 259 257 256 254 252 250 248 246 245 244 243 242 242 241 240 238 237 236 235 234 234 233 232 232 231 230 229 229 228 228 228 228 228 228 228 227 227 226 225 224 223 222 222 222 222 222 221 221 220 220 220
319 320 320 320 320 320 320 319 318 317 317 316 315 314 314 313 313 312 311 311 310 309 308 307 306 305 305 304 303 301 300 299 298 296 295 293 291 290 288 286 284 282 280 278 275 273 270 268 266 263 261 260 258 257 255 254 252 250 248 246 244 243 242 242 241 240 239 238 237 236 234 234 233 232 231 231 230 229 229 228 227 227 227 227 227 227 227 227 226 226 225 224 223 222 221 221 221 221 221 221 220 220 220
321 321 321 321 321 321 321 320 319 318 317 317 316 315 315 314 314 313 312 311 310 310 309 308 307 307 306 305 304 303 301 300 299 298 296 295 293 291 290 288 286 284 282 279 277 274 272 269 267 264 262 260 258 256 255 253 251 250 248 246 244 242 241 241 240 239 238 237 236 235 234 233 232 231 230 230 229 229 228 227 227 226 226 226 226 226 226 226 226 225 225 224 223 222 221 221 220 220 220 220 220 220 219
322 322 322 323 322 322 322 321 320 319 318 317 317 316 316 315 315 314 313 312 311 311 310 309 308 308 307 306 305 303 302 301 300 299 297 296 294 293 291 289 287 285 283 281 278 276 273 271 268 265 262 260 258 256 254 253 251 249 247 245 244 242 241 240 239 238 238 237 236 235 233 232 231 230 229 229 228 228 227 227 226 225 225 225 225 226 226 226 225 225 224 224 223 222 221 220 220 220 220 220 220 219 219
323 323 324 324 323 323 322 322 321 320 319 318 318 317 317 316 315 315 314 313 312 312 311 310 310 309 308 307 306 305 303 302 301 300 299 297 296 294 293 291 289 287 285 283 280 277 275 272 269 266 263 260 258 255 254 252 250 249 247 245 243 242 240 239 238 237 237 236 235 234 233 232 230 229 228 228 227 227 227 226 225 224 224 224 224 224 225 225 225 224 224 223 223 222 221 220 220 219 219 219 219 219 219
324 325 325 325 324 324 323 322 322 321 320 319 319 318 318 317 316 316 315 314 314 313 312 312 311 310 309 308 307 306 305 304 303 302 300 299 298 296 294 292 290 288 286 284 281 279 276 273 270 267 264 261 258 256 253 251 250 248 247 245 243 241 240 238 237 236 236 235 235 234 232 231 230 228 227 227 226 226 225 225 224 224 223 223 223 223 224 224 224 224 224 223 223 222 221 220 220 219 219 219 219 219 219
325 326 326 325 325 325 324 323 322 322 321 320 320 319 318 318 317 317 316 316 315 314 314 313 312 311 310 309 308 307 306 306 304 303 302 301 299 297 295 293 291 289 287 285 283 280 277 274 272 269 266 263 259 256 253 251 249 247 246 244 242 241 239 238 236 235 235 234 234 233 232 231 229 228 227 226 225 225 224 224 223 223 222 222 222 222 223 223 223 223 223 223 222 222 221 220 219 219 218 218 218 218 218
326 327 327 326 326 325 325 324 323 322 322 321 321 320 319 319 318 318 317 317 316 315 315 314 313 313 312 311 310 309 308 307 306 305 303 302 300 298 297 295 293 290 288 286 284 281 278 276 273 270 267 264 260 257 254 251 248 246 245 243 242 240 238 237 235 234 234 233 232 232 231 230 229 227 226 225 224 224 223 223 222 222 221 221 221 221 221 222 222 222 222 222 222 222 221 220 219 219 218 218 218 218 218
327 328 327 327 327 326 325 325 324 323 323 322 321 321 320 320 319 319 318 318 317 317 316 315 315 314 313 313 312 311 310 309 307 306 305 303 301 300 298 296 294 292 290 287 285 282 279 276 274 271 268 265 262 258 255 252 249 246 244 242 241 239 237 236 235 234 233 232 231 231 230 230 229 227 226 225 223 223 222 222 221 221 221 220 220 220 220 221 221 222 222 222 222 221 221 220 219 219 218 218 217 218 218
328 328 328 328 327 327 326 325 325 324 323 323 322 322 321 321 320 320 320 319 319 318 317 317 316 316 315 314 313 312 311 310 309 307 306 305 303 301 299 298 296 294 291 289 286 284 281 277 274 271 268 265 262 259 256 253 249 246 243 241 240 238 237 235 234 233 232 231 230 230 229 229 228 227 226 224 223 222 221 221 221 220 220 220 219 219 219 220 220 221 221 221 221 221 220 220 219 218 218 217 217 217 217
329 329 329 329 328 327 327 326 326 325 324 324 323 323 322 322 322 321 321 320 320 319 319 318 318 317 317 316 315 314 313 312 310 309 307 306 305 303 302 300 298 296 294 291 289 286 282 279 275 271 268 265 262 259 256 253 250 247 244 241 239 237 236 234 233 232 231 230 229 228 228 228 227 227 226 224 223 222 221 220 220 219 219 219 218 218 218 218 219 220 220 220 220 220 220 219 219 218 218 217 217 217 217
330 330 330 329 329 328 328 327 326 326 325 325 324 324 323 323 323 323 322 322 321 321 320 320 319 319 318 318 317 316 314 313 312 311 309 308 307 306 304 303 301 299 297 294 291 288 285 281 277 272 268 265 261 258 255 253 250 247 244 241 238 236 235 233 232 231 230 229 228 227 227 226 226 226 225 224 223 222 221 220 219 219 218 218 218 217 217 217 218 218 219 219 219 219 219 219 219 218 217 217 216 216 216
331 331 331 330 330 329 328 328 327 327 326 326 325 325 325 324 324 324 323 323 322 322 322 321 321 321 320 319 319 317 316 315 314 313 312 311 310 309 307 306 304 302 299 296 293 290 287 283 279 274 269 265 261 257 254 252 249 247 244 241 238 236 234 232 231 230 229 228 227 227 226 225 225 225 224 224 223 222 221 219 219 218 218 217 217 216 216 216 217 217 218 218 219 219 219 219 218 218 217 217 216 216 216
332 332 331 331 330 330 329 329 328 328 327 326 326 326 326 326 325 325 324 324 323 323 323 323 323 322 322 321 320 319 318 316 315 315 314 313 313 311 310 308 306 304 302 299 295 292 289 285 281 276 271 266 261 256 253 250 248 246 244 241 238 235 233 231 230 229 228 227 227 226 225 224 224 224 224 224 223 222 221 219 218 218 217 217 216 216 216 216 216 216 217 218 218 218 219 218 218 218 217 217 216 216 216
333 332 332 332 331 330 330 329 329 328 328 327 327 327 327 327 326 326 325 325 325 324 324 324 324 324 324 323 322 320 319 318 317 316 316 316 315 314 312 311 309 306 304 301 298 295 291 287 282 278 273 267 262 256 252 248 246 244 242 240 238 235 233 230 229 227 227 226 226 225 224 224 223 223 223 223 223 222 221 220 218 217 216 216 216 215 215 215 215 215 216 217 218 218 218 218 218 218 217 217 216 216 216
334 333 333 332 332 331 331 330 330 329 329 328 328 328 328 328 328 327 327 326 326 326 326 326 326 326 326 325 324 322 320 319 319 318 318 318 317 316 314 313 311 309 307 305 302 298 294 289 284 279 274 269 263 257 252 247 244 242 240 238 237 235 232 230 228 227 225 225 224 224 224 223 222 222 222 222 222 222 221 220 218 217 216 216 215 215 215 215 215 215 215 216 217 217 218 218 218 217 217 217 216 216 215
334 334 333 333 332 332 331 331 330 330 330 329 329 329 329 329 329 328 328 327 327 327 327 327 328 328 328 327 325 323 322 321 321 321 320 320 319 318 317 316 315 314 311 309 305 301 296 291 286 280 275 270 264 258 252 247 243 240 238 236 235 233 232 229 227 226 225 224 223 223 223 222 222 221 221 221 221 221 221 220 219 218 216 216 215 215 215 214 214 214 214 215 216 216 217 217 217 217 217 216 216 215 215
335 335 334 334 333 332 332 331 331 331 331 331 331 331 331 330 330 330 329 329 328 328 328 329 329 329 329 328 327 325 324 323 323 323 323 323 323 322 322 321 319 318 315 313 310 306 300 294 288 282 276 271 265 259 253 247 242 238 235 234 232 231 230 228 227 225 224 223 222 222 222 221 221 221 220 220 221 221 221 220 219 218 217 216 215 215 214 214 214 213 213 214 215 216 216 217 217 217 217 216 216 215 215
335 335 335 334 334 333 333 332 332 332 332 332 332 332 332 332 331 330 330 329 329 329 329 330 331 331 331 330 329 327 326 325 325 325 326 326 327 327 327 326 324 321 319 317 315 312 307 300 292 285 278 272 266 260 254 248 242 237 234 232 230 229 228 227 226 225 223 222 221 221 221 221 220 220 220 220 220 220 220 220 219 218 217 216 216 215 214 214 213 213 213 213 214 214 215 216 216 216 216 216 216 215 215
336 336 335 335 334 334 333 333 333 333 333 333 333 333 333 332 332 331 331 330 330 330 331 331 332 332 332 332 331 329 328 328 328 328 329 330 330 330 330 329 328 326 325 323 321 318 314 306 297 289 281 274 268 262 255 248 242 237 233 230 228 227 226 226 225 224 222 221 220 220 220 220 219 219 219 219 219 219 219 219 219 218 218 217 216 215 214 214 213 213 212 212 213 214 214 215 216 216 216 216 215 215 215
336 336 336 335 335 335 334 334 334 334 334 334 334 334 334 333 333 332 332 331 331 331 332 333 334 334 334 333 332 331 330 330 330 331 332 333 333 333 333 333 332 332 331 330 328 324 321 315 306 294 284 277 270 264 257 250 243 237 233 229 227 226 225 224 224 223 222 221 220 219 218 218 218 218 218 218 218 218 218 218 218 218 218 217 217 216 215 214 213 213 212 212 212 213 214 214 215 215 216 215 215 215 215
337 337 336 336 336 335 335 335 335 334 335 335 335 335 335 334 334 333 333 332 332 333 333 334 335 335 335 335 334 333 333 332 333 333 334 335 336 336 336 335 335 334 334 334 334 333 330 325 317 305 291 281 273 266 259 251 244 238 233 229 227 225 224 224 223 222 221 220 219 218 217 217 217 217 217 217 217 217 217 217 217 218 218 217 217 216 215 214 214 213 213 212 212 212 213 214 214 215 215 215 215 215 215
338 337 337 337 336 336 336 335 335 335 336 336 336 336 336 335 335 334 334 333 333 334 335 336 336 337 337 336 336 335 335 334 335 336 337 337 338 338 338 337 337 336 336 337 338 339 337 333 325 313 300 287 278 269 261 253 246 240 234 230 227 225 224 223 223 222 221 219 218 217 216 216 215 215 215 216 216 216 216 216 216 217 217 217 217 216 216 215 214 214 213 213 212 212 212 213 214 214 215 215 215 215 214
338 338 338 337 337 337 336 336 336 336 337 337 337 337 337 336 336 335 335 335 335 335 336 337 338 338 338 338 337 337 336 336 337 338 339 339 340 340 339 340 341 343 343 342 341 341 340 337 331 320 309 297 286 275 265 255 248 241 235 230 226 224 223 222 222 221 220 219 217 216 215 215 214 214 215 215 215 215 215 216 216 216 216 217 217 216 216 216 215 215 214 213 213 212 212 212 213 214 214 214 214 214 214
339 339 338 338 338 337 337 337 337 337 337 338 338 338 337 337 337 336 336 336 336 336 337 338 339 340 340 339 338 338 338 338 338 339 340 341 341 340 340 342 344 346 347 346 344 343 342 340 336 330 322 307 294 282 269 258 249 242 236 231 227 223 221 220 220 220 219 218 216 215 214 214 213 214 214 214 214 215 215 215 215 215 216 216 216 216 216 216 216 215 215 214 213 212 212 212 212 213 213 214 214 214 214
339 339 339 338 338 338 338 338 338 338 338 338 339 339 338 338 338 338 337 337 337 338 338 339 340 341 341 341 340 339 339 339 339 340 341 342 342 341 341 342 345 347 348 347 346 346 345 343 341 337 330 318 303 290 276 262 251 243 236 231 226 223 221 219 218 218 217 216 215 214 213 213 213 213 213 213 214 214 215 215 215 215 215 215 216 216 216 216 216 216 215 215 214 213 212 212 212 212 213 213 213 213 214
340 340 339 339 339 338 338 338 338 339 339 339 340 339 339 339 339 338 338 338 338 339 340 341 342 342 342 342 341 340 340 340 340 341 341 342 342 342 342 344 347 349 350 350 349 349 348 347 345 341 335 328 317 302 284 267 253 243 236 230 225 222 220 218 217 216 216 215 214 213 212 212 212 212 213 213 214 214 215 215 215 215 215 215 215 216 216 216 216 216 216 215 214 213 213 212 212 212 212 213 213 213 213
341 340 340 340 339 339 339 339 339 339 340 340 340 340 340 340 339 339 339 339 340 340 341 342 343 343 343 343 342 341 340 340 341 341 342 342 342 343 343 346 348 351 352 352 352 351 351 350 348 345 341 336 328 315 297 275 256 243 234 228 224 221 219 217 216 215 214 213 213 212 212 212 212 212 212 213 213 214 214 215 215 215 215 215 215 215 216 216 216 216 216 215 214 214 213 213 212 212 212 212 212 213 213
341 341 340 340 340 340 339 339 340 340 341 341 341 341 341 341 340 340 340 341 341 341 342 343 344 344 344 344 343 342 341 341 341 341 342 342 342 343 344 346 349 351 353 353 354 354 353 352 351 349 346 340 333 323 308 285 262 245 234 227 222 219 217 216 214 213 213 212 211 211 211 211 211 212 212 213 213 214 214 214 215 215 215 215 215 215 216 216 216 216 216 215 215 214 214 213 212 212 212 212 212 212 212